TimePST,TemperatureF,Dew PointF,Humidity,Sea Level PressureIn,VisibilityMPH,Wind Direction,Wind SpeedMPH,Gust SpeedMPH,PrecipitationIn,Events,Conditions,WindDirDegrees,DateUTC
12:53 AM,55.0,43.0,64,30.06,10.0,NW,10.4,-,N/A,,Overcast,310,2013-03-04 08:53:00
1:53 AM,53.1,44.1,71,30.06,10.0,NW,8.1,-,N/A,,Partly Cloudy,310,2013-03-04 09:53:00
2:53 AM,51.1,44.1,77,30.06,10.0,NW,8.1,-,N/A,,Clear,310,2013-03-04 10:53:00
3:53 AM,50.0,43.0,77,30.06,10.0,WNW,9.2,-,N/A,,Clear,300,2013-03-04 11:53:00
4:53 AM,50.0,43.0,77,30.08,10.0,NW,8.1,-,N/A,,Clear,310,2013-03-04 12:53:00
5:53 AM,46.9,43.0,86,30.09,10.0,NNW,6.9,-,N/A,,Clear,330,2013-03-04 13:53:00
6:53 AM,45.0,42.1,90,30.10,9.0,NNW,5.8,-,N/A,,Clear,330,2013-03-04 14:53:00
7:53 AM,50.0,43.0,77,30.11,10.0,NW,8.1,-,N/A,,Clear,320,2013-03-04 15:53:00
8:53 AM,55.9,45.0,67,30.14,10.0,Calm,Calm,-,N/A,,Clear,0,2013-03-04 16:53:00
9:53 AM,60.1,43.0,53,30.14,10.0,North,4.6,-,N/A,,Clear,350,2013-03-04 17:53:00
10:53 AM,62.1,44.1,52,30.14,10.0,Variable,3.5,-,N/A,,Clear,0,2013-03-04 18:53:00
11:53 AM,66.0,45.0,47,30.12,10.0,NE,5.8,-,N/A,,Clear,50,2013-03-04 19:53:00
12:53 PM,69.1,45.0,42,30.09,10.0,Variable,4.6,-,N/A,,Clear,0,2013-03-04 20:53:00
1:53 PM,70.0,42.1,36,30.06,10.0,NNW,3.5,-,N/A,,Clear,330,2013-03-04 21:53:00
2:53 PM,72.0,42.1,34,30.06,10.0,Variable,4.6,-,N/A,,Clear,0,2013-03-04 22:53:00
3:53 PM,71.1,41.0,34,30.05,10.0,NW,5.8,-,N/A,,Clear,320,2013-03-04 23:53:00
4:53 PM,71.1,41.0,34,30.04,10.0,ENE,3.5,-,N/A,,Clear,60,2013-03-05 00:53:00
5:53 PM,64.9,42.1,43,30.03,10.0,ESE,3.5,-,N/A,,Clear,110,2013-03-05 01:53:00
6:53 PM,55.9,44.1,64,30.02,10.0,South,3.5,-,N/A,,Clear,170,2013-03-05 02:53:00
7:53 PM,55.0,44.1,67,30.03,10.0,WSW,5.8,-,N/A,,Clear,250,2013-03-05 03:53:00
8:53 PM,55.0,44.1,67,30.05,10.0,Calm,Calm,-,N/A,,Clear,0,2013-03-05 04:53:00
9:53 PM,50.0,43.0,77,30.06,10.0,ENE,4.6,-,N/A,,Clear,60,2013-03-05 05:53:00
11:53 PM,48.9,43.0,80,30.06,10.0,Calm,Calm,-,N/A,,Clear,0,2013-03-05 07:53:00